Retour au catalogue

FENGYUN 1C DEB

ActifSSO
NORAD 30762·DEBRIS·🇨🇳 China

Lancé May 10, 1999 depuis Taiyuan Satellite Launch Center

Loading…

Prochains Passages (prochaines 24 heures)

TLE

FraisSource: Space-Track

Époque: Sep 12, 2026, 11:25 UTC

1 30762U 99025ATY 26255.47634374  .00000346  00000-0  23148-3 0  9995
2 30762  98.8953 242.8680 0196240 257.5845 234.7449 13.98427841994631

Suivez FENGYUN 1C DEB en temps réel avec AllMySat

Download on the App Store